Content
SEND FEEDBACK

Daily
Averages
Monthly
Summary
United States of America

BOSTON, MASSACHUSETTS


Home > North America > United States > Massachusetts
Elevation: 1 meter     Latitude: 42 22N     Longitude: 071 02W

WEATHER
 
SELECT A DAY
Number of Records: 202,578;   Date Range: 1/1/95 - 7/27/14
 
SHARE

PRINT THIS DATA

[ ← Previous Day ]
WEATHER ALMANAC - 1 FEBRUARY, 2013
[ Next Day → ]
[ °F ]   °C
Weather ElementAverageHighLow
Temperature-1.7 °C0.6 °C (12:54 pm)-5 °C (11:54 pm)
Dewpoint-14.4 °C-11.1 °C (1:54 am)-16.7 °C (10:54 pm)
Humidity38.5 %49 % (5:54 am)29 % (12:54 pm)
Barometer1009.8 hPa1018.6 hPa (11:54 pm)1003 hPa (1:54 am)
Wind Speed27.5 km/h37 km/h (8:54 am)
Wind Gust51.8 km/h (9:54 am)
Weather ElementAverage
Visibility16.1 km
Wind DirectionW (274.8 °)

Weather ElementTotal
Precipitation---
Heating Degree Days20.6 (Base 18.3)
Averaged from 23 records on 1 February, 2013
WEATHER CONDITIONS BREAKOUT
WIND DIRECTION BREAKOUT
WEATHER BY HOUR - 1 FEBRUARY, 2013
[ °F ]   °C
Local TimeTemperatureDewpointHumidityBarometerVisibilityWind DirectionWind SpeedGust SpeedPrecipitationEventsConditions
1:54 AM-0.6 °C-11.1 °C46 %1003 hPa16.1 kmWest (270°)24.1 km/h35.2 km/hPartly Cloudy
2:54 AM-1.1 °C-13.3 °C40 %1003.7 hPa16.1 kmWest (260°)29.6 km/h46.3 km/hPartly Cloudy
3:54 AM-1.1 °C-13.9 °C38 %1004.4 hPa16.1 kmWest (270°)24.1 km/hPartly Cloudy
4:54 AM-1.7 °C-12.8 °C43 %1004.7 hPa16.1 kmWSW (240°)22.2 km/h37 km/hPartly Cloudy
5:54 AM-2.2 °C-11.7 °C49 %1005.4 hPa16.1 kmWSW (240°)25.9 km/h42.6 km/hPartly Cloudy
6:54 AM-2.2 °C-12.8 °C45 %1006.4 hPa16.1 kmWSW (250°)25.9 km/h37 km/hPartly Cloudy
7:54 AM-2.2 °C-12.2 °C47 %1007.5 hPa16.1 kmWSW (240°)27.8 km/h44.4 km/hPartly Cloudy
8:54 AM-1.1 °C-11.7 °C45 %1008.8 hPa16.1 kmWSW (250°)37 km/h48.1 km/hScattered Clouds
9:54 AM-1.1 °C-13.3 °C40 %1008.8 hPa16.1 kmWest (270°)33.3 km/h51.8 km/hScattered Clouds
10:54 AM0 °C-14.4 °C34 %1008.8 hPa16.1 kmWSW (250°)31.5 km/h42.6 km/hScattered Clouds
11:54 AM0 °C-15.6 °C31 %1008.8 hPa16.1 kmWest (280°)33.3 km/h46.3 km/hScattered Clouds
12:54 PM0.6 °C-15.6 °C29 %1007.5 hPa16.1 kmNW (310°)29.6 km/h38.9 km/hScattered Clouds
1:54 PM0 °C-15.6 °C31 %1008.1 hPa16.1 kmWest (270°)25.9 km/hScattered Clouds
2:54 PM-0.6 °C-16.1 °C31 %1008.8 hPa16.1 kmWNW (300°)27.8 km/h38.9 km/hScattered Clouds
3:54 PM-1.1 °C-15 °C35 %1009.8 hPa16.1 kmWNW (300°)25.9 km/h37 km/hScattered Clouds
4:54 PM-1.1 °C-15 °C35 %1011.2 hPa16.1 kmWest (280°)25.9 km/h42.6 km/hMostly Cloudy
5:54 PM-1.7 °C-15 °C36 %1012.9 hPa16.1 kmWNW (290°)25.9 km/h42.6 km/hMostly Cloudy
6:54 PM-2.2 °C-16.1 °C34 %1014.6 hPa16.1 kmNW (320°)31.5 km/h48.1 km/hScattered Clouds
7:54 PM-2.8 °C-15 °C39 %1015.9 hPa16.1 kmWNW (300°)20.4 km/hPartly Cloudy
8:54 PM-3.3 °C-15 °C41 %1016.6 hPa16.1 kmWNW (290°)22.2 km/hPartly Cloudy
9:54 PM-3.9 °C-16.1 °C39 %1017.3 hPa16.1 kmWNW (290°)31.5 km/h40.7 km/hPartly Cloudy
10:54 PM-4.4 °C-16.7 °C38 %1017.9 hPa16.1 kmWest (270°)25.9 km/h42.6 km/hPartly Cloudy
11:54 PM-5 °C-16.7 °C40 %1018.6 hPa16.1 kmWest (280°)25.9 km/h38.9 km/hPartly Cloudy
Hourly data recorded from KBOS, located 0 kilometers away from Boston, Massachusetts







STORIES FROM OUR PARTNERS